Location: Burbank
(38.7788°N, 114.0429°W)
Time: 02:36:52
(UTC+00:00)

Tiros 1 despin weight - Pass Details

Date: 18 May 2026
Orbit: 554 x 591 km, 48.2° (Epoch: 6 June)

Event Time Altitude Azimuth Distance (km) Brightness Sun altitude
Rises 18:47:48 0° 286° (WNW) 2,727 ? 68.6°
Reaches altitude 10° 18:50:56 10° 261° (W) 1,828 ? 68.9°
Maximum altitude 18:53:11 14° 228° (SW) 1,568 ? 69.1°
Drops below altitude 10° 18:55:26 10° 195° (SSW) 1,824 ? 69.3°
Sets 18:58:33 0° 171° (S) 2,717 ? 69.5°
